Stations météo

réclame
Mon MeteoGroup
Köln-Bonn, Allemagne (10513): Température de l'air & dewpoint: 17.10.2019 18:00:00 - 23.10.2019 18:00:00 (CEST)Köln-Bonn, Allemagne (10513): Température de l'air 5cm & Température de l'air -5cm: 17.10.2019 18:00:00 - 23.10.2019 18:00:00 (CEST)Köln-Bonn, Allemagne (10513): Température de l'air -20cm & Température de l'air -100cm: 17.10.2019 18:00:00 - 23.10.2019 18:00:00 (CEST)Köln-Bonn, Allemagne (10513): Vitesse du vent & gusts: 17.10.2019 18:00:00 - 23.10.2019 18:00:00 (CEST)Köln-Bonn, Allemagne (10513): Direction du vent: 17.10.2019 18:00:00 - 23.10.2019 18:00:00 (CEST)Köln-Bonn, Allemagne (10513): reduced air pressure: 17.10.2019 18:00:00 - 23.10.2019 18:00:00 (CEST)Köln-Bonn, Allemagne (10513): visibility: 17.10.2019 18:00:00 - 23.10.2019 18:00:00 (CEST)Köln-Bonn, Allemagne (10513): Ensoleillement: 17.10.2019 18:00:00 - 23.10.2019 18:00:00 (CEST)Köln-Bonn, Allemagne (10513): Quantités de précipitations: 17.10.2019 18:00:00 - 23.10.2019 18:00:00 (CEST)
Date & Time tt [°C] td [°C] tt 5cm [°C] tt -5cm [°C] tt -20cm [°C] tt -100cm [°C] ff [km/h] ff [knt] fx [km/h] fx [knt] dd ppp [hPa] vv [km] sd [min] rr [mm]
23.10.2019 18:00:00 14,3 11,1 13,9 14,7 14,0 14,3 15 8 30 16 SE 1012,5 10 0 0,0
23.10.2019 17:00:00 14,3 11,4 14,1 15,5 13,9 14,4 22 12 31 17 SSE 1013,1 10 40 0,0
23.10.2019 16:00:00 15,7 11,6 16,8 16,3 13,6 14,4 23 12 32 17 SSE 1013,6 28 60 0,0
23.10.2019 15:00:00 15,9 11,7 17,4 16,5 13,3 14,4 18 10 36 20 SSE 1014,3 10 60 0,0
23.10.2019 14:00:00 15,4 11,3 16,9 16,1 12,9 14,4 19 10 32 17 SSE 1015,0 25 51 0,0
23.10.2019 13:00:00 15,3 10,9 17,1 16,0 12,4 14,4 16 9 24 13 SSE 1015,6 25 60 0,0
23.10.2019 12:00:00 14,8 10,4 16,9 14,8 12,0 14,4 9 5 15 8 SSE 1016,7 10 60 0,0
23.10.2019 11:00:00 13,1 9,6 15,3 13,2 11,8 14,4 2 1 9 5 - 1016,9 10 60 0,0
23.10.2019 10:00:00 11,2 9,4 13,6 11,0 11,7 14,4 4 2 11 6 - 1017,8 10 37 0,0
23.10.2019 09:00:00 8,5 8,1 8,2 9,8 11,8 14,4 9 5 9 5 SSE 1018,8 10 0 0,0
23.10.2019 08:00:00 7,9 7,8 7,2 9,6 11,9 14,4 2 1 9 5 S 1019,0 18 0 0,0
23.10.2019 07:00:00 8,4 8,1 7,1 10,1 12,0 14,4 4 2 5 3 - 1019,2 10 0 0,0
23.10.2019 06:00:00 9,1 8,6 8,6 10,4 12,1 14,4 5 3 4 2 NE 1019,5 10 0 0,0
23.10.2019 05:00:00 9,0 8,6 8,8 10,4 12,2 14,4 5 3 8 4 SE 1020,1 10 0 0,0
23.10.2019 04:00:00 8,8 8,3 8,5 10,2 12,3 14,4 4 2 9 5 SE 1020,9 10 0 0,0
23.10.2019 03:00:00 8,7 8,3 8,0 10,1 12,4 14,4 3 1 4 2 SE 1021,8 20 0 0,0
23.10.2019 02:00:00 9,0 8,4 7,0 10,7 12,6 14,4 2 1 5 3 E 1022,1 20 0 0,0
23.10.2019 01:00:00 10,0 9,0 9,1 11,0 12,7 14,4 3 1 5 3 SSW 1023,2 22 0 0,0
23.10.2019 00:00:00 10,0 8,8 9,6 11,1 12,8 14,4 4 2 8 4 SE 1023,3 22 0 0,0
22.10.2019 23:00:00 10,0 8,4 8,5 11,2 12,9 14,4 2 1 9 5 SE 1023,7 10 0 0,0
22.10.2019 22:00:00 10,8 9,0 10,2 11,3 13,1 14,5 9 5 11 6 ESE 1023,7 24 0 0,0
22.10.2019 21:00:00 10,6 8,6 8,1 11,3 13,4 14,5 4 2 11 6 - 1024,1 10 0 0,0
22.10.2019 20:00:00 11,0 9,2 8,8 12,0 13,6 14,5 9 5 11 6 ENE 1024,5 10 0 0,0
22.10.2019 19:00:00 11,0 9,4 9,0 13,1 13,7 14,5 6 3 13 7 N 1024,5 40 0 0,0
22.10.2019 18:00:00 13,3 9,5 12,2 14,7 13,6 14,5 10 5 12 7 N 1024,0 50 34 0,0
22.10.2019 17:00:00 14,8 9,4 15,5 15,8 13,3 14,5 4 2 13 7 - 1024,2 10 60 0,0
22.10.2019 16:00:00 14,7 9,4 17,9 15,8 12,9 14,5 5 3 11 6 NNW 1024,3 50 40 0,0
22.10.2019 15:00:00 14,6 9,5 18,3 15,8 12,5 14,5 4 2 11 6 - 1024,8 10 24 0,0
22.10.2019 14:00:00 14,0 9,3 16,1 14,5 12,1 14,5 4 2 11 6 - 1024,9 10 14 0,0
22.10.2019 13:00:00 12,4 8,9 13,7 12,4 11,9 14,5 8 4 11 6 SSE 1025,9 10 0 0,0
22.10.2019 12:00:00 11,2 8,6 11,7 11,4 11,8 14,5 5 3 12 7 SSE 1026,0 10 0 0,0
22.10.2019 11:00:00 10,5 8,2 10,5 10,8 11,8 14,5 9 5 11 6 SSE 1025,5 10 0 0,0
22.10.2019 10:00:00 9,7 8,2 9,8 10,3 11,8 14,5 7 4 13 7 SSE 1025,5 50 0 0,0
22.10.2019 09:00:00 9,5 8,0 9,3 9,9 11,8 14,5 8 4 15 8 S 1024,9 50 0 0,0
22.10.2019 08:00:00 9,3 7,7 8,8 9,8 11,9 14,5 8 4 24 13 S 1023,5 50 0 0,0
22.10.2019 07:00:00 10,0 7,7 9,5 9,5 12,0 14,5 8 4 11 6 SE 1023,0 10 0 0,0
22.10.2019 06:00:00 9,0 7,5 8,3 8,9 12,2 14,5 5 3 13 7 SE 1023,5 60 0 0,0
22.10.2019 05:00:00 8,7 7,3 6,4 9,2 12,5 14,5 7 4 11 6 SE 1023,5 60 0 0,0
22.10.2019 04:00:00 9,2 7,6 7,4 9,6 12,7 14,5 11 6 13 7 SSE 1023,3 10 0 0,0
22.10.2019 03:00:00 8,9 7,5 7,2 10,0 12,9 14,5 11 6 15 8 SSE 1023,4 10 0 0,0
22.10.2019 02:00:00 9,8 7,8 8,0 10,6 13,2 14,5 11 6 15 8 SE 1023,3 10 0 0,0
22.10.2019 01:00:00 10,7 8,1 8,9 11,1 13,4 14,5 11 6 14 8 SE 1022,8 10 0 0,0
22.10.2019 00:00:00 11,1 8,4 9,5 11,8 13,5 14,5 15 8 16 9 SSE 1022,7 10 0 0,0
21.10.2019 23:00:00 12,2 8,3 11,5 12,0 13,7 14,5 11 6 15 8 SE 1022,2 10 0 0,0
21.10.2019 22:00:00 11,7 8,1 10,9 12,0 13,9 14,5 13 7 15 8 S 1022,2 10 0 0,0
21.10.2019 21:00:00 11,7 8,2 11,1 12,2 14,1 14,5 8 4 15 8 SSE 1021,9 70 0 0,0
21.10.2019 20:00:00 12,0 7,6 10,5 12,6 14,4 14,5 13 7 16 9 S 1021,4 10 0 0,0
21.10.2019 19:00:00 11,8 7,4 10,2 13,6 14,6 14,5 11 6 25 14 S 1020,7 10 0 0,0
21.10.2019 18:00:00 13,9 7,9 12,9 14,8 14,6 14,5 15 8 35 19 SSW 1020,0 10 4 0,0
21.10.2019 17:00:00 15,6 9,2 16,7 15,9 14,5 14,5 15 8 28 15 WSW 1019,4 10 46 0,0
21.10.2019 16:00:00 15,2 8,9 15,5 16,7 14,3 14,5 21 11 35 19 WSW 1018,9 10 45 0,0
21.10.2019 15:00:00 16,8 10,1 18,1 16,7 14,1 14,5 22 12 36 19 SW 1018,2 10 41 0,0
21.10.2019 14:00:00 16,7 10,4 17,0 15,9 13,9 14,5 22 12 30 16 SW 1017,8 10 0 0,0
21.10.2019 13:00:00 17,3 11,4 17,0 16,1 13,6 14,5 11 6 33 18 S 1017,2 10 8 0,0
21.10.2019 12:00:00 17,4 12,5 18,0 15,6 13,4 14,5 13 7 23 13 SSE 1016,4 60 20 0,0
21.10.2019 11:00:00 16,4 13,2 16,2 14,9 13,1 14,5 16 9 24 13 SE 1015,8 10 50 0,0
21.10.2019 10:00:00 15,0 13,4 14,7 13,3 13,1 14,5 14 7 21 11 SE 1015,3 65 1 0,0
21.10.2019 09:00:00 14,6 13,3 13,9 12,9 13,0 14,5 13 7 22 12 SE 1014,4 10 0 0,0
21.10.2019 08:00:00 14,3 13,1 13,6 12,7 13,0 14,5 16 9 21 11 SE 1013,3 50 0 0,0
21.10.2019 07:00:00 13,9 12,9 13,1 12,4 13,0 14,5 11 6 15 8 ESE 1012,6 24 0 0,0
21.10.2019 06:00:00 12,6 12,3 12,3 12,3 13,0 14,5 8 4 9 5 SE 1012,8 10 0 0,0
21.10.2019 05:00:00 11,9 11,8 11,7 12,1 13,1 14,5 3 1 5 3 ESE 1011,7 3,0 0 0,0
21.10.2019 04:00:00 11,7 11,4 11,3 12,0 13,1 14,5 5 3 5 3 WSW 1011,4 10 0 0,0
21.10.2019 03:00:00 13,0 12,4 11,8 12,0 13,2 14,5 0 0 11 6 N 1010,5 30 0 0,0
21.10.2019 02:00:00 12,3 12,0 11,2 12,4 13,3 14,6 8 4 11 6 E 1010,4 10 0 0,0
21.10.2019 01:00:00 12,4 12,1 11,7 12,8 13,3 14,6 2 1 16 9 - 1010,5 10 0 0,7
21.10.2019 00:00:00 12,5 12,3 12,3 12,9 13,4 14,6 7 4 13 7 S 1010,9 9 0 1,8
20.10.2019 23:00:00 12,5 12,3 12,3 13,0 13,4 14,6 4 2 16 9 - 1009,6 9 0 1,1
20.10.2019 22:00:00 12,5 12,2 12,3 13,0 13,5 14,6 7 4 11 6 WSW 1009,5 20 0 0,2
20.10.2019 21:00:00 12,4 11,9 12,0 13,1 13,5 14,6 4 2 21 11 - 1008,2 10 0 0,8
20.10.2019 20:00:00 12,9 12,7 12,7 13,4 13,5 14,6 9 5 11 6 SSE 1008,4 5 0 1,5
20.10.2019 19:00:00 13,3 13,0 13,0 13,6 13,5 14,6 4 2 8 4 - 1008,0 5 0 1,7
20.10.2019 18:00:00 13,5 13,1 13,3 13,8 13,5 14,7 5 3 5 3 SE 1007,3 8 0 0,8
20.10.2019 17:00:00 13,6 13,2 13,4 13,9 13,4 14,7 5 3 9 5 NW 1007,5 80 0 1,7
20.10.2019 16:00:00 13,9 13,4 13,7 14,1 13,3 14,7 8 4 13 7 N 1007,2 10 0 1,5
20.10.2019 15:00:00 13,7 13,2 13,5 14,0 13,1 14,7 5 3 8 4 ENE 1007,3 10 0 3,2
20.10.2019 14:00:00 13,4 12,7 13,3 14,2 12,9 14,7 4 2 9 5 - 1007,9 10 0 0,6
20.10.2019 13:00:00 13,1 12,2 13,0 13,6 12,8 14,7 6 3 9 5 NNE 1007,7 40 0 0,2
20.10.2019 12:00:00 12,5 11,8 12,5 12,8 12,7 14,7 5 3 9 5 NE 1008,0 10 0 1,6
20.10.2019 11:00:00 12,2 11,2 11,9 12,5 12,6 14,7 4 2 11 6 - 1008,5 10 0 0,1
20.10.2019 10:00:00 11,8 10,9 11,6 12,1 12,6 14,7 8 4 13 7 ENE 1008,3 10 0 0,0
20.10.2019 09:00:00 11,4 10,9 11,2 11,8 12,6 14,7 8 4 8 4 ENE 1008,4 10 0 0,0
20.10.2019 08:00:00 11,2 10,7 10,9 11,7 12,6 14,7 2 1 11 6 - 1008,3 10 0 0,0
20.10.2019 07:00:00 11,3 10,7 10,9 11,7 12,7 14,8 8 4 11 6 SE 1008,6 10 0 0,0
20.10.2019 06:00:00 11,4 10,7 10,9 11,7 12,7 14,8 4 2 8 4 - 1008,4 10 0 0,0
20.10.2019 05:00:00 11,3 10,8 10,9 11,7 12,8 14,8 5 3 13 7 SE 1008,0 10 0 0,0
20.10.2019 04:00:00 11,4 10,8 11,0 11,8 12,8 14,8 10 5 13 7 SE 1007,9 50 0 0,7
20.10.2019 03:00:00 11,6 11,0 11,1 11,9 12,8 14,8 8 4 11 6 SE 1008,3 10 0 0,2
20.10.2019 02:00:00 11,9 11,1 11,3 12,0 12,9 14,8 9 5 9 5 SE 1008,0 10 0 0,2
20.10.2019 01:00:00 12,6 11,3 11,6 12,0 12,9 14,8 6 3 8 4 SSE 1008,3 60 0 0,1
20.10.2019 00:00:00 12,2 11,5 11,5 12,1 13,0 14,8 9 5 10 6 SE 1007,9 10 0 0,0
19.10.2019 23:00:00 12,7 11,9 11,9 12,3 13,0 14,8 8 4 11 6 SE 1007,6 10 0 0,0
19.10.2019 22:00:00 12,7 11,7 11,9 12,4 13,1 14,8 5 3 8 4 SE 1007,2 10 0 0,1
19.10.2019 21:00:00 12,4 11,6 11,8 12,4 13,1 14,9 8 4 15 8 SSE 1006,9 10 0 0,0
19.10.2019 20:00:00 12,7 11,4 11,8 12,6 13,1 14,9 9 5 11 6 SE 1006,5 10 0 0,0
19.10.2019 19:00:00 12,5 11,5 11,9 12,8 13,1 14,9 10 5 16 9 SSE 1006,1 45 0 0,2
19.10.2019 18:00:00 13,0 11,5 12,2 13,2 13,1 14,9 13 7 21 11 S 1006,3 10 0 0,6
19.10.2019 17:00:00 13,4 12,2 12,7 13,5 13,0 14,9 18 10 23 13 SSW 1006,3 4,5 0 0,6
19.10.2019 16:00:00 13,8 12,2 13,1 13,7 12,8 14,9 10 5 22 12 S 1005,9 20 0 0,6
19.10.2019 15:00:00 14,2 12,3 13,4 13,8 12,6 14,9 18 10 32 17 S 1005,6 10 0 0,6
19.10.2019 14:00:00 15,2 11,1 14,3 13,6 12,4 15,0 20 11 29 15 SSE 1005,6 60 0 0,0
19.10.2019 13:00:00 14,6 10,8 14,7 12,7 12,2 15,0 18 10 31 17 SSE 1006,2 10 0 0,0
19.10.2019 12:00:00 13,8 10,3 13,6 12,1 12,0 15,0 28 15 43 23 SSE 1006,8 10 0 0,0
19.10.2019 11:00:00 13,5 9,9 13,1 11,3 12,0 15,0 21 11 40 22 SSE 1006,6 10 0 0,0
19.10.2019 10:00:00 12,2 9,5 11,7 10,8 11,9 15,0 9 5 21 11 SE 1006,5 50 0 0,0
19.10.2019 09:00:00 11,8 8,7 11,1 10,3 12,0 15,0 16 9 28 15 SE 1006,7 50 0 0,0
19.10.2019 08:00:00 11,5 7,9 10,5 10,2 12,0 15,0 16 9 23 13 SE 1006,7 10 0 0,0
19.10.2019 07:00:00 11,5 7,8 10,5 10,3 12,0 15,0 16 9 21 11 SE 1007,2 10 0 0,0
19.10.2019 06:00:00 11,6 7,6 10,8 10,2 12,1 15,0 12 6 22 12 SE 1007,6 50 0 0,0
19.10.2019 05:00:00 10,8 7,4 10,2 9,9 12,2 15,0 18 10 21 11 SE 1008,2 10 0 0,0
19.10.2019 04:00:00 10,4 7,2 9,5 9,8 12,3 15,0 15 8 24 13 SE 1008,4 50 0 0,0
19.10.2019 03:00:00 10,3 7,0 9,4 9,8 12,5 15,0 16 9 18 10 SE 1008,7 10 0 0,0
19.10.2019 02:00:00 10,3 7,0 9,1 9,8 12,6 15,0 15 8 16 8 SE 1009,3 10 0 0,0
19.10.2019 01:00:00 10,6 6,9 9,3 10,2 12,8 15,0 15 8 18 10 SE 1009,5 10 0 0,0
19.10.2019 00:00:00 10,6 6,9 9,5 10,3 13,0 15,0 13 7 18 10 SE 1009,8 10 0 0,0
18.10.2019 23:00:00 10,0 6,7 9,0 10,4 13,3 15,0 15 8 18 10 SSE 1010,1 10 0 0,0
18.10.2019 22:00:00 9,9 6,5 8,5 10,6 13,5 15,1 11 6 16 9 SSE 1010,3 60 0 0,0
18.10.2019 21:00:00 10,5 6,3 8,7 11,1 13,8 15,1 11 6 17 9 SSE 1010,6 10 0 0,0
18.10.2019 20:00:00 11,3 6,3 9,5 11,8 14,0 15,1 15 8 15 8 S 1010,4 10 0 0,0
18.10.2019 19:00:00 10,9 6,7 9,2 13,0 14,1 15,1 11 6 22 12 S 1010,0 10 13 0,0
18.10.2019 18:00:00 14,4 6,5 13,5 14,3 14,1 15,1 21 11 38 21 SW 1009,4 10 42 0,0
18.10.2019 17:00:00 14,7 6,7 14,7 14,9 13,9 15,1 28 15 41 22 WSW 1008,8 10 33 0,0
18.10.2019 16:00:00 14,7 7,4 14,0 14,6 13,8 15,1 26 14 44 24 WSW 1008,2 10 24 0,0
18.10.2019 15:00:00 13,9 6,6 13,1 13,6 13,8 15,1 22 12 45 24 SW 1007,9 10 4 0,0
18.10.2019 14:00:00 12,3 8,9 11,3 13,2 13,8 15,1 15 8 30 16 S 1007,4 10 0 2,2
18.10.2019 13:00:00 10,5 9,4 10,0 13,9 13,7 15,1 28 15 65 35 WSW 1008,2 10 1 0,7
18.10.2019 12:00:00 16,0 11,4 15,6 14,0 13,5 15,1 28 15 45 24 SSE 1006,4 10 2 0,0
18.10.2019 11:00:00 15,8 11,8 15,8 13,4 13,5 15,1 21 11 27 15 SSE 1006,9 10 3 0,0
18.10.2019 10:00:00 14,8 11,8 14,4 12,7 13,4 15,1 18 10 30 16 SSE 1007,5 70 0 0,0
18.10.2019 09:00:00 13,9 11,3 13,0 12,4 13,5 15,1 16 9 27 14 SSE 1007,7 10 0 0,0
18.10.2019 08:00:00 13,7 11,3 12,7 12,4 13,5 15,1 21 11 31 17 SSE 1007,7 10 0 0,0
18.10.2019 07:00:00 14,0 11,4 13,1 12,3 13,5 15,1 20 11 29 16 SSE 1008,3 70 0 0,0
18.10.2019 06:00:00 12,9 11,2 12,3 12,1 13,6 15,1 16 9 26 14 SE 1008,4 70 0 0,0
18.10.2019 05:00:00 12,7 10,3 11,5 11,7 13,8 15,1 12 7 16 9 ESE 1009,5 70 0 0,0
18.10.2019 04:00:00 12,5 10,3 10,8 11,7 14,0 15,1 13 7 16 9 ESE 1009,8 10 0 0,0
18.10.2019 03:00:00 12,3 10,6 10,2 12,0 14,2 15,1 13 7 16 9 SE 1010,3 10 0 0,0
18.10.2019 02:00:00 12,1 10,8 10,5 12,6 14,4 15,1 13 7 18 10 SSE 1010,7 10 0 0,0
18.10.2019 01:00:00 13,0 12,0 11,8 13,5 14,5 15,1 16 9 21 11 SSE 1010,7 10 0 0,0
18.10.2019 00:00:00 13,8 12,7 13,2 13,6 14,6 15,1 15 8 16 9 SSE 1010,8 10 0 0,0
17.10.2019 23:00:00 12,8 12,1 12,2 13,7 14,6 15,1 11 6 18 10 SSE 1011,2 10 0 0,0
17.10.2019 22:00:00 13,8 12,7 13,3 14,0 14,7 15,1 13 7 15 8 SSE 1011,0 10 0 0,0
17.10.2019 21:00:00 14,1 13,0 13,4 14,2 14,8 15,1 11 6 21 11 SE 1010,8 10 0 0,0
17.10.2019 20:00:00 14,1 13,2 13,5 14,4 14,9 15,1 12 7 21 11 SE 1010,8 60 0 0,0
17.10.2019 19:00:00 14,2 13,4 13,6 14,7 15,0 15,1 15 8 21 11 SE 1010,8 10 0 0,8
17.10.2019 18:00:00 14,4 13,4 13,8 15,1 15,0 15,1 13 7 22 12 SSE 1011,0 10 0 1,0

tt = Température de l'air
td = dewpoint
tt 5cm = Température de l'air 5cm
tt -5cm = Température de l'air -5cm
tt -20cm = Température de l'air -20cm
tt -100cm = Température de l'air -100cm
ff = Vitesse du vent
fx = gusts
dd = Direction du vent
ppp = reduced air pressure
vv = visibility
sd = Ensoleillement
rr = Quantités de précipitations

stations d'obs. à proximité